Data for 06/13/2017

Time Sea-Level Adjusted Pressure Absolute Pressure Temperature Relative Humidity Dew Point   
(mb) (inHg) (mb) (inHg) (C) (F) (%) (C) (F)
00:05 1010 29.83 839 24.78 6.9 44.5 86 4.8 40.6
00:10 1010 29.83 839 24.78 6.9 44.4 85 4.6 40.2
00:15 1010 29.83 839 24.78 6.8 44.3 83 4.1 39.5
00:20 1010 29.83 839 24.78 6.7 44 85 4.3 39.8
00:25 1010 29.83 839 24.78 6.5 43.7 87 4.4 40
00:30 1010 29.83 839 24.78 6.4 43.5 88 4.5 40.2
00:35 1010 29.83 839 24.78 6.2 43.2 87 4.2 39.6
00:40 1010 29.83 839 24.78 6.2 43.2 88 4.4 40
00:45 1010 29.83 839 24.78 6.2 43.1 89 4.5 40.1
00:50 1010 29.83 839 24.78 6.1 43 89 4.5 40.1
00:55 1010 29.83 839 24.78 6.1 43 85 3.8 38.8
01:00 1010 29.83 839 24.78 6.4 43.6 83 3.7 38.7
01:05 1010 29.83 839 24.78 6.6 43.8 82 3.7 38.6
01:10 1010 29.83 839 24.78 6.6 43.9 78 3.1 37.6
01:15 1010 29.83 839 24.78 6.8 44.2 79 3.4 38.1
01:20 1009 29.8 839 24.78 6.8 44.3 77 3.2 37.7
01:25 1009 29.8 839 24.78 6.7 44.1 82 3.9 38.9
01:30 1009 29.8 839 24.78 6.3 43.3 84 3.7 38.7
01:35 1009 29.8 839 24.78 6.1 43.1 85 3.8 38.9
01:40 1009 29.8 838 24.75 6.1 43.1 86 4 39.2
01:45 1009 29.8 838 24.75 6.1 43 87 4.1 39.4
01:50 1009 29.8 838 24.75 6 42.8 87 4 39.3
01:55 1009 29.8 838 24.75 5.7 42.2 88 3.9 39
02:00 1009 29.8 838 24.75 5.6 42.1 89 3.9 39.1
02:05 1009 29.8 838 24.75 5.6 42.1 89 3.9 39.1
02:10 1009 29.8 838 24.75 5.7 42.3 89 4 39.2
02:15 1009 29.8 838 24.75 5.8 42.5 88 4 39.3
02:20 1009 29.8 838 24.75 5.8 42.5 88 4 39.2
02:25 1009 29.8 838 24.75 5.8 42.5 89 4.1 39.4
02:30 1009 29.8 838 24.75 5.8 42.5 88 4 39.3
02:35 1009 29.8 838 24.75 5.8 42.5 88 4 39.2
02:40 1009 29.8 838 24.75 5.8 42.4 88 4 39.2
02:45 1009 29.8 838 24.75 5.8 42.4 87 3.8 38.9
02:50 1009 29.8 838 24.75 5.8 42.4 87 3.7 38.6
02:55 1009 29.8 838 24.75 5.7 42.3 87 3.7 38.7
03:00 1009 29.8 838 24.75 5.8 42.4 86 3.7 38.7
03:05 1009 29.8 838 24.75 5.9 42.5 87 3.8 38.8
03:10 1009 29.8 838 24.75 5.8 42.4 88 3.9 39
03:15 1009 29.8 838 24.75 5.7 42.3 88 3.9 39
03:20 1009 29.8 838 24.75 5.6 42.2 88 3.8 38.8
03:25 1009 29.8 838 24.75 5.6 42 88 3.7 38.7
03:30 1008 29.77 838 24.75 5.6 42.1 88 3.8 38.9
03:35 1008 29.77 838 24.75 5.5 41.9 86 3.3 38
03:40 1008 29.77 838 24.75 5.6 42 88 3.8 38.8
03:45 1008 29.77 838 24.75 5.5 41.9 88 3.6 38.6
03:50 1008 29.77 838 24.75 5.5 41.9 88 3.8 38.8
03:55 1008 29.77 837 24.72 5.5 41.9 88 3.7 38.7
04:00 1008 29.77 837 24.72 5.5 41.9 89 3.8 38.8
04:05 1008 29.77 837 24.72 5.4 41.7 88 3.6 38.5
04:10 1008 29.77 837 24.72 5.3 41.5 87 3.4 38.1
04:15 1008 29.77 837 24.72 5.1 41.2 88 3.2 37.7
04:20 1008 29.77 837 24.72 5.1 41.2 89 3.4 38.2
04:25 1008 29.77 837 24.72 5.1 41.2 89 3.5 38.4
04:30 1008 29.77 837 24.72 5.1 41.2 90 3.5 38.3
04:35 1008 29.77 837 24.72 5 41.1 90 3.5 38.2
04:40 1008 29.77 837 24.72 5 41.1 89 3.4 38.2
04:45 1008 29.77 837 24.72 5 41 89 3.3 38
04:50 1008 29.77 837 24.72 5 40.9 88 3.2 37.7
04:55 1008 29.77 837 24.72 4.8 40.7 87 2.8 37
05:00 1008 29.77 837 24.72 4.7 40.5 86 2.6 36.7
05:05 1008 29.77 837 24.72 4.6 40.3 86 2.5 36.5
05:10 1008 29.77 837 24.72 4.6 40.3 87 2.7 36.9
05:15 1008 29.77 837 24.72 4.6 40.3 86 2.5 36.4
05:20 1008 29.77 837 24.72 4.4 40 87 2.4 36.4
05:25 1008 29.77 837 24.72 4.4 39.9 89 2.7 36.9
05:30 1008 29.77 837 24.72 4.4 39.9 89 2.7 36.8
05:35 1008 29.77 837 24.72 4.4 40 89 2.8 37
05:40 1008 29.77 837 24.72 4.5 40.1 90 3 37.4
05:45 1008 29.77 837 24.72 4.5 40.2 90 3.1 37.6
05:50 1008 29.77 837 24.72 4.6 40.3 91 3.2 37.8
05:55 1008 29.77 837 24.72 4.6 40.4 91 3.3 37.9
06:00 1008 29.77 837 24.72 4.6 40.4 90 3.2 37.8
06:05 1008 29.77 837 24.72 4.6 40.2 90 3.1 37.5
06:10 1008 29.77 837 24.72 4.5 40.1 90 2.9 37.3
06:15 1008 29.77 837 24.72 4.4 39.9 90 2.9 37.1
06:20 1008 29.77 837 24.72 4.3 39.7 89 2.6 36.7
06:25 1007 29.74 837 24.72 4.3 39.7 89 2.7 36.9
06:30 1007 29.74 836 24.69 4.2 39.6 89 2.6 36.7
06:35 1007 29.74 836 24.69 4.2 39.5 90 2.6 36.7
06:40 1007 29.74 836 24.69 4.2 39.5 90 2.6 36.7
06:45 1007 29.74 836 24.69 4.1 39.4 90 2.6 36.7
06:50 1007 29.74 836 24.69 4.1 39.4 89 2.5 36.5
06:55 1007 29.74 836 24.69 4.1 39.3 89 2.5 36.4
07:00 1007 29.74 836 24.69 4.1 39.4 89 2.4 36.4
07:05 1007 29.74 836 24.69 4.1 39.5 89 2.5 36.4
07:10 1007 29.74 836 24.69 4.2 39.5 89 2.5 36.5
07:15 1007 29.74 836 24.69 4.2 39.6 89 2.6 36.6
07:20 1007 29.74 836 24.69 4.3 39.7 88 2.5 36.5
07:25 1007 29.74 836 24.69 4.3 39.7 88 2.5 36.5
07:30 1007 29.74 836 24.69 4.4 39.9 89 2.7 36.9
07:35 1007 29.74 836 24.69 4.4 39.9 89 2.7 36.9
07:40 1007 29.74 836 24.69 4.5 40 89 2.9 37.2
07:45 1007 29.74 836 24.69 4.6 40.3 90 3.1 37.5
07:50 1007 29.74 836 24.69 4.7 40.4 89 3 37.3
07:55 1007 29.74 836 24.69 4.6 40.3 89 3 37.4
08:00 1007 29.74 836 24.69 4.9 40.7 90 3.3 38
08:05 1007 29.74 836 24.69 5.1 41.1 90 3.5 38.4
08:10 1007 29.74 836 24.69 4.9 40.9 89 3.3 38
08:15 1007 29.74 836 24.69 4.9 40.9 90 3.3 38
08:20 1007 29.74 836 24.69 5 40.9 91 3.6 38.4
08:25 1007 29.74 836 24.69 5.2 41.3 91 3.8 38.8
08:30 1007 29.74 837 24.72 5.2 41.3 90 3.7 38.7
08:35 1007 29.74 837 24.72 5.1 41.3 88 3.4 38.1
08:40 1007 29.74 837 24.72 5 41 88 3.3 37.9
08:45 1007 29.74 837 24.72 5.1 41.2 87 3.2 37.7
08:50 1007 29.74 837 24.72 5 41 87 2.9 37.3
08:55 1007 29.74 837 24.72 4.7 40.5 88 2.8 37.1
09:00 1007 29.74 837 24.72 4.7 40.5 87 2.8 37
09:05 1007 29.74 836 24.69 4.8 40.6 88 3 37.4
09:10 1007 29.74 836 24.69 5.1 41.1 88 3.2 37.8
09:15 1007 29.74 836 24.69 5.1 41.2 85 2.8 37
09:20 1007 29.74 837 24.72 4.8 40.7 86 2.7 36.9
09:25 1007 29.74 836 24.69 4.9 40.8 86 2.7 36.9
09:30 1007 29.74 836 24.69 5 40.9 87 2.9 37.3
09:35 1007 29.74 836 24.69 5 41 85 2.8 37
09:40 1007 29.74 836 24.69 5 41 86 2.9 37.2
09:45 1007 29.74 836 24.69 4.8 40.7 88 2.9 37.3
09:50 1007 29.74 836 24.69 4.7 40.5 89 3 37.5
09:55 1007 29.74 837 24.72 4.7 40.4 88 2.9 37.3
10:00 1008 29.77 837 24.72 4.5 40.2 89 2.9 37.2
10:05 1008 29.77 837 24.72 4.5 40 90 3 37.3
10:10 1008 29.77 837 24.72 4.7 40.5 90 3.1 37.7
10:15 1008 29.77 837 24.72 5 41 88 3.1 37.6
10:20 1008 29.77 837 24.72 4.8 40.6 88 3 37.3
10:25 1008 29.77 837 24.72 4.9 40.7 88 3.1 37.6
10:30 1008 29.77 837 24.72 4.8 40.7 89 3.1 37.6
10:35 1008 29.77 837 24.72 4.7 40.5 90 3.2 37.7
10:40 1008 29.77 838 24.75 5 41 90 3.5 38.2
10:45 1008 29.77 838 24.75 5 41 90 3.4 38.2
10:50 1008 29.77 838 24.75 5 41.1 90 3.5 38.3
10:55 1008 29.77 837 24.72 5.3 41.5 87 3.3 37.9
11:00 1008 29.77 838 24.75 5.2 41.3 87 3.2 37.8
11:05 1008 29.77 838 24.75 5.3 41.5 89 3.6 38.4
11:10 1008 29.77 838 24.75 5.6 42.1 88 3.8 38.9
11:15 1008 29.77 838 24.75 5.9 42.6 85 3.6 38.5
11:20 1008 29.77 838 24.75 6 42.9 84 3.6 38.5
11:25 1008 29.77 838 24.75 6 42.9 83 3.4 38.1
11:30 1009 29.8 838 24.75 6.2 43.2 83 3.6 38.5
11:35 1009 29.8 838 24.75 6 42.8 85 3.7 38.6
11:40 1009 29.8 838 24.75 5.8 42.5 86 3.8 38.8
11:45 1009 29.8 838 24.75 6 42.8 85 3.7 38.6
11:50 1009 29.8 838 24.75 6.1 43 83 3.5 38.3
11:55 1009 29.8 838 24.75 6.3 43.3 85 4 39.1
12:00 1009 29.8 838 24.75 6.5 43.7 85 4.2 39.6
12:05 1009 29.8 838 24.75 6.7 44 83 4 39.2
12:10 1009 29.8 838 24.75 6.3 43.3 85 4 39.2
12:15 1009 29.8 838 24.75 5.9 42.6 87 3.9 39
12:20 1009 29.8 838 24.75 6 42.8 84 3.6 38.4
12:25 1009 29.8 839 24.78 5.8 42.5 87 3.8 38.8
12:30 1009 29.8 839 24.78 6 42.8 88 4.1 39.3
12:35 1009 29.8 839 24.78 6 42.8 88 4.1 39.4
12:40 1009 29.8 839 24.78 5.8 42.4 89 4.1 39.3
12:45 1009 29.8 839 24.78 5.7 42.3 88 3.9 39
12:50 1010 29.83 839 24.78 5.6 42.1 89 3.9 39.1
12:55 1010 29.83 839 24.78 5.8 42.4 88 4 39.2
13:00 1010 29.83 839 24.78 6.1 43 87 4.1 39.3
13:05 1010 29.83 839 24.78 6 42.8 86 3.8 38.9
13:10 1010 29.83 839 24.78 6.2 43.1 85 3.9 39
13:15 1010 29.83 839 24.78 6.4 43.5 86 4.3 39.7
13:20 1010 29.83 839 24.78 6.8 44.2 85 4.5 40.1
13:25 1010 29.83 839 24.78 7.2 44.9 85 4.7 40.5
13:30 1010 29.83 839 24.78 7.7 45.9 85 5.4 41.8
13:35 1010 29.83 839 24.78 8 46.5 81 5 41
13:40 1010 29.83 839 24.78 7.5 45.5 85 5.1 41.1
13:45 1010 29.83 839 24.78 7.9 46.2 81 4.9 40.9
13:50 1010 29.83 839 24.78 8 46.4 83 5.3 41.5
13:55 1010 29.83 839 24.78 7.9 46.2 84 5.3 41.6
14:00 1010 29.83 839 24.78 7.8 46 86 5.6 42.2
14:05 1010 29.83 839 24.78 7.9 46.3 84 5.5 41.8
14:10 1010 29.83 839 24.78 7.9 46.1 86 5.7 42.3
14:15 1010 29.83 839 24.78 7.6 45.6 87 5.6 42.1
14:20 1010 29.83 839 24.78 7.5 45.4 86 5.2 41.4
14:25 1010 29.83 840 24.81 7.4 45.4 87 5.3 41.6
14:30 1011 29.85 840 24.81 7.5 45.4 88 5.6 42.2
14:35 1011 29.85 840 24.81 7.8 46 87 5.7 42.3
14:40 1011 29.85 840 24.81 7.9 46.2 87 5.9 42.7
14:45 1011 29.85 840 24.81 8.2 46.7 87 6.2 43.1
14:50 1011 29.85 840 24.81 8.4 47 87 6.3 43.3
14:55 1011 29.85 840 24.81 8.3 46.9 83 5.6 42
15:00 1011 29.85 840 24.81 8.5 47.3 82 5.6 42.1
15:05 1011 29.85 840 24.81 9.1 48.5 80 5.9 42.6
15:10 1011 29.85 840 24.81 8.9 48.1 79 5.5 41.9
15:15 1011 29.85 840 24.81 9.4 48.9 77 5.5 42
15:20 1011 29.85 840 24.81 9.8 49.6 77 6 42.9
15:25 1011 29.85 840 24.81 10.2 50.4 77 6.4 43.5
15:30 1011 29.85 840 24.81 10.6 51 76 6.5 43.7
15:35 1011 29.85 840 24.81 11.2 52.1 76 7.1 44.7
15:40 1011 29.85 840 24.81 11.5 52.7 77 7.7 45.9
15:45 1011 29.85 840 24.81 11.9 53.4 68 6.2 43.2
15:50 1011 29.85 840 24.81 11.9 53.5 69 6.4 43.5
15:55 1011 29.85 840 24.81 12.1 53.8 74 7.6 45.7
16:00 1011 29.85 840 24.81 10.6 51.1 80 7.3 45.2
16:05 1011 29.85 840 24.81 10.2 50.4 81 7.1 44.9
16:10 1011 29.85 841 24.83 11 51.9 75 6.8 44.3
16:15 1011 29.85 841 24.83 11.7 53 73 7.1 44.7
16:20 1011 29.85 841 24.83 11.9 53.4 73 7.2 45
16:25 1011 29.85 841 24.83 12.2 54 72 7.3 45.1
16:30 1012 29.88 841 24.83 12.4 54.3 71 7.4 45.3
16:35 1012 29.88 841 24.83 13.2 55.8 65 6.9 44.5
16:40 1012 29.88 841 24.83 13.5 56.4 65 7.1 44.7
16:45 1012 29.88 841 24.83 12.9 55.2 65 6.5 43.7
16:50 1012 29.88 841 24.83 12.4 54.3 66 6.4 43.4
16:55 1012 29.88 841 24.83 12.3 54.2 68 6.7 44.1
17:00 1012 29.88 841 24.83 12.2 53.9 70 6.9 44.4
17:05 1012 29.88 841 24.83 12.1 53.8 70 6.9 44.4
17:10 1012 29.88 841 24.83 12.5 54.4 68 6.8 44.2
17:15 1012 29.88 841 24.83 12.8 55.1 66 6.7 44
17:20 1012 29.88 841 24.83 12.9 55.2 59 5.2 41.4
17:25 1012 29.88 841 24.83 12.9 55.3 59 5.1 41.2
17:30 1012 29.88 841 24.83 13 55.3 56 4.5 40.1
17:35 1012 29.88 841 24.83 12.9 55.2 55 4.2 39.6
17:40 1012 29.88 841 24.83 12.6 54.7 57 4.3 39.8
17:45 1012 29.88 841 24.83 12.5 54.4 59 4.7 40.4
17:50 1012 29.88 841 24.83 12.5 54.4 59 4.7 40.4
17:55 1012 29.88 841 24.83 12.4 54.4 59 4.7 40.5
18:00 1012 29.88 841 24.83 12.4 54.2 60 4.8 40.6
18:05 1012 29.88 841 24.83 12.4 54.3 59 4.8 40.6
18:10 1012 29.88 841 24.83 12.3 54.1 59 4.6 40.3
18:15 1012 29.88 841 24.83 12.1 53.8 60 4.7 40.4
18:20 1012 29.88 841 24.83 12.1 53.7 60 4.7 40.5
18:25 1012 29.88 841 24.83 12 53.6 60 4.6 40.3
18:30 1012 29.88 841 24.83 12 53.5 59 4.4 39.9
18:35 1012 29.88 841 24.83 11.8 53.3 59 4.1 39.4
18:40 1012 29.88 842 24.86 11.8 53.2 60 4.3 39.7
18:45 1012 29.88 842 24.86 11.7 53.1 59 4.1 39.4
18:50 1012 29.88 842 24.86 11.7 53 61 4.5 40.1
18:55 1013 29.91 842 24.86 11.6 52.9 62 4.6 40.4
19:00 1013 29.91 842 24.86 11.5 52.8 63 4.8 40.6
19:05 1013 29.91 842 24.86 11.4 52.5 65 5.1 41.2
19:10 1013 29.91 842 24.86 11.3 52.4 65 5.1 41.2
19:15 1013 29.91 842 24.86 11.3 52.3 65 5 41
19:20 1013 29.91 842 24.86 11.2 52.2 65 4.9 40.8
19:25 1013 29.91 842 24.86 11.2 52.1 66 5.1 41.1
19:30 1013 29.91 842 24.86 10.9 51.7 69 5.4 41.8
19:35 1013 29.91 842 24.86 10.6 51.1 71 5.6 42.2
19:40 1013 29.91 842 24.86 10.3 50.5 74 5.8 42.5
19:45 1013 29.91 843 24.89 10 49.9 76 6 42.8
19:50 1014 29.94 843 24.89 9.7 49.4 78 5.9 42.7
19:55 1014 29.94 843 24.89 9.4 49 77 5.6 42
20:00 1014 29.94 843 24.89 9.3 48.8 75 5.2 41.4
20:05 1014 29.94 843 24.89 9.2 48.5 77 5.3 41.6
20:10 1014 29.94 843 24.89 9 48.2 78 5.4 41.8
20:15 1014 29.94 843 24.89 8.8 47.8 78 5.2 41.4
20:20 1014 29.94 843 24.89 8.6 47.4 80 5.3 41.6
20:25 1014 29.94 843 24.89 8.4 47.1 80 5.2 41.4
20:30 1014 29.94 844 24.92 8.3 47 81 5.3 41.6
20:35 1015 29.97 844 24.92 8.4 47 81 5.2 41.4
20:40 1015 29.97 844 24.92 8.3 47 82 5.4 41.7
20:45 1015 29.97 844 24.92 8.3 47 81 5.3 41.6
20:50 1015 29.97 844 24.92 8.3 46.9 83 5.5 41.8
20:55 1015 29.97 844 24.92 8.3 46.9 83 5.5 41.8
21:00 1015 29.97 844 24.92 8.2 46.8 83 5.5 41.8
21:05 1015 29.97 844 24.92 8.2 46.8 82 5.3 41.5
21:10 1015 29.97 844 24.92 8.2 46.7 81 5.2 41.3
21:15 1015 29.97 844 24.92 8.1 46.6 81 5 41
21:20 1015 29.97 844 24.92 8 46.5 82 5.1 41.2
21:25 1015 29.97 844 24.92 8 46.5 81 5.1 41.1
21:30 1015 29.97 844 24.92 8 46.4 80 4.8 40.7
21:35 1015 29.97 845 24.95 8 46.4 81 4.9 40.9
21:40 1015 29.97 845 24.95 7.9 46.2 82 5 41
21:45 1015 29.97 845 24.95 7.8 46 82 4.9 40.9
21:50 1016 30 845 24.95 7.7 45.9 83 5 41
21:55 1016 30 845 24.95 7.8 46 83 5.1 41.2
22:00 1016 30 845 24.95 7.8 46 83 5.1 41.1
22:05 1016 30 845 24.95 7.7 45.9 83 5.1 41.1
22:10 1016 30 845 24.95 7.7 45.9 83 5.1 41.2
22:15 1016 30 845 24.95 7.7 45.8 83 5 41.1
22:20 1016 30 845 24.95 7.7 45.8 84 5.2 41.3
22:25 1016 30 845 24.95 7.7 45.8 85 5.3 41.5
22:30 1016 30 845 24.95 7.7 45.8 84 5.1 41.2
22:35 1016 30 845 24.95 7.6 45.7 84 5.1 41.2
22:40 1016 30 845 24.95 7.6 45.7 83 4.9 40.9
22:45 1016 30 845 24.95 7.6 45.7 83 4.9 40.9
22:50 1016 30 845 24.95 7.7 45.8 83 5 40.9
22:55 1016 30 845 24.95 7.7 45.8 83 5 41
23:00 1016 30 845 24.95 7.7 45.8 83 5 41
23:05 1016 30 845 24.95 7.6 45.8 83 4.9 40.8
23:10 1016 30 845 24.95 7.6 45.7 83 5 41
23:15 1016 30 845 24.95 7.6 45.7 84 5 41
23:20 1016 30 845 24.95 7.6 45.6 84 5 41
23:25 1016 30 845 24.95 7.5 45.5 85 5.1 41.1
23:30 1016 30 845 24.95 7.4 45.4 85 5.1 41.1
23:35 1016 30 845 24.95 7.5 45.4 84 5 41
23:40 1016 30 845 24.95 7.6 45.6 82 4.8 40.6
23:45 1016 30 845 24.95 7.7 45.8 83 4.9 40.8
23:50 1016 30 845 24.95 7.7 45.8 83 5 40.9
23:55 1016 30 846 24.98 7.7 45.8 84 5.1 41.2
24:00 1016 30 846 24.98 7.6 45.8 84 5.1 41.3